OneWeb SL0269

operational
NORAD ID: 48987 Int'l Des: 2021-060 Owner: ONEWEBN Country: UK Constellation: oneweb
LEOCIRCULARPOLARONEWEB_TYPE

Über OneWeb SL0269

Beschreibung wird geladen...

Live-Position

3D-Globus wird geladen...

Nächste Überflüge

Höhenverlauf

Altitude vs Time

uPlot chart will show altitude changes over time

Zweizeiliger Elementsatz

1 48987U 21060W 25351.45735523 .00000165 00000-0 39859-3 0 9994
2 48987 87.9036 264.9881 0001708 81.6896 278.4429 13.16592682215718
Epoch: 17. Dez. 2025 • Age: 11 hours

Aktueller Status

Höhe 1210.2 km
Geschwindigkeit 7.26 km/s
Subsatellitenpunkt 83.24°N, 139.14°W
Startdatum 1. Juli 2021
Alter 4.4 years
Typ internet

Technische Details

Klassifizierung Payload
Masse 148.00 kg
Trockenmasse 140.00 kg
Gesamtmasse 148.00 kg
Länge 1.30 m
Durchmesser 1.00 m
Spannweite 5.00 m
Form Trapezoid+2 pan
Hersteller ONEWUS
Bus-Typ ARROW
Phasenstatus In Orbit
Besitzer/Staat ONEWEBN/UK

Große Konstellationen

Loading constellations...